Regional Weather Roundup
Issued by NWS Midland/Odessa, TX

Skip options and go directly to product.
Home | Oldest Version | Next Version | Current Version | All | Text Only | Save Text | Print | Product List | Glossary On

Skip product version selection by date and time.   
606
ASUS44 KMAF 310510
RWRMAF
MIDLAND AREA WEATHER ROUNDUP
NATIONAL WEATHER SERVICE MIDLAND TX
1200 AM CDT WED AUG 31 2016

...IN SOUTHWEST TEXAS AND SOUTHEAST NEW MEXICO...

CITY           SKY/WX    TMP DP  RH WIND       PRES   REMARKS
ALPINE         CLOUDY    65  65  97 E6        30.28S
ANDREWS        LGT RAIN  67  67 100 NE8       30.19F
ARTESIA        MOCLDY    66  66 100 NW6       30.22R
BIG SPRING     CLOUDY    73  68  86 NE3       30.16S
CARLSBAD       CLOUDY    68  65  90 NW6       30.19R
DRYDEN           N/A     73  71  93 CALM      30.09R
FORT STOCKTON  CLOUDY    70  67  90 S3        30.15R
GUAD PASS      FOG       62  62 100 NE24      30.28R VSB 1/2
HOBBS          CLOUDY    66  66 100 NE9       30.22S
MARFA          CLOUDY   N/A N/A N/A N6        30.24S
MIDLAND AIRPK  CLOUDY    72  67  86 N10       30.16S
MIDLAND INTL   LGT RAIN  71  66  84 N9        30.15F
ODESSA         LGT RAIN  70  69  97 N8        30.17F
PECOS          CLOUDY    69  67  94 NW3       30.14R
PRESIDIO       FAIR      74  66  75 CALM      30.11R
SEMINOLE       MOCLDY    67  66  97 NE7       30.20S
SNYDER           N/A     74  69  83 CALM      30.16R
WINK           CLOUDY    70  67  90 N7        30.13R
$$
...OTHER STATIONS IN TEXAS...

CITY           SKY/WX    TMP DP  RH WIND       PRES   REMARKS
ABILENE        CLOUDY    76  68  76 E7        30.10R
AMARILLO       CLOUDY    65  64  97 N5        30.24S FOG
AUSTIN         CLOUDY    76  73  91 CALM      29.99R
BROWNSVILLE    CLEAR     82  77  84 E10       29.89R
CORPUS CHRISTI MOCLDY    78  75  90 NE7       29.93R
DALLAS FTW     PTCLDY    81  71  71 NE6       30.00F
DEL RIO        PTCLDY    75  73  93 NW3       30.02S
EL PASO        CLOUDY    70  64  81 E7        30.17S
HOUSTON INT    CLOUDY    79  75  87 W3        29.94S
LUBBOCK        LGT RAIN  66  65  96 CALM      30.21S
SAN ANGELO     CLOUDY    78  68  71 CALM      30.08S
SAN ANTONIO    CLOUDY    78  74  87 NE8       30.01R
WACO           PTCLDY    79  73  82 NW6       30.00S
WICHITA FALLS  NOT AVBL
$$
...OTHER LOCATIONS IN NEW MEXICO...

CITY           SKY/WX    TMP DP  RH WIND       PRES   REMARKS
ALAMAGORDO     CLOUDY    73  55  53 NW9       30.19S
ALBUQUERQUE    PTCLDY    67  56  67 E22G30    30.28S
CANNON AFB     LGT RAIN  65  65 100 E7        30.27R
CLOVIS         CLOUDY    64  61  88 CALM      30.27R
HOLLOMAN AFB   CLOUDY    73  59  62 W7        30.16R
ROSWELL        MOCLDY    68  64  87 N3        30.22S
RUIDOSO          N/A     57  55  94 SE7       30.41S
SANTA FE       CLOUDY    60  53  77 SE17      30.35R
TRUTH OR CONSE PTCLDY    71  55  56 N6        30.22R
TUCUMCARI      CLOUDY    67  65  93 CALM      30.26R
$$

USA.gov is the U.S. government's official web portal to all federal, state and local government web resources and services.